contact:dominique.lefevre@mio.osupytheas.fr, maurice.libes@osupytheas.fr, didier.mallarino@osupytheas.fr
Project:EMSO http://www.emso-fr.org/EMSO-France
Depth: 2436.0 m
Title:EMSO Ligure Ouest : Data MII capteur MICROCAT
DateTime_Computer,Latitude,Longitude,Temperature,Conductivity,Pressure,DateTime_Instrument
DateTime_Computer,Latitude,Longitude,degC,S m-1,dbar,DateTime_Instrument
2023-01-05T00:03:01Z,42.805,6.029,13.3026,4.60121,2470.586,2023-1-05T02:09:10Z
2023-01-05T00:06:04Z,42.805,6.029,13.3022,4.60108,2470.544,2023-1-05T02:12:13Z
2023-01-05T00:09:07Z,42.805,6.029,13.3031,4.60095,2470.567,2023-1-05T02:15:16Z
2023-01-05T00:12:10Z,42.805,6.029,13.3024,4.60104,2470.553,2023-1-05T02:18:19Z
2023-01-05T00:15:14Z,42.805,6.029,13.3031,4.60108,2470.53,2023-1-05T02:21:22Z
2023-01-05T00:18:17Z,42.805,6.029,13.3025,4.60155,2470.577,2023-1-05T02:24:25Z
2023-01-05T00:21:20Z,42.805,6.029,13.3033,4.60127,2470.507,2023-1-05T02:27:28Z
2023-01-05T00:24:23Z,42.805,6.029,13.3041,4.60121,2470.577,2023-1-05T02:30:31Z
2023-01-05T00:27:26Z,42.805,6.029,13.3034,4.60116,2470.544,2023-1-05T02:33:34Z
2023-01-05T00:30:29Z,42.805,6.029,13.3048,4.60110,2470.577,2023-1-05T02:36:37Z
2023-01-05T00:33:32Z,42.805,6.029,13.3034,4.60112,2470.553,2023-1-05T02:39:40Z
2023-01-05T00:36:35Z,42.805,6.029,13.3024,4.60090,2470.614,2023-1-05T02:42:44Z
2023-01-05T00:39:38Z,42.805,6.029,13.3031,4.60099,2470.567,2023-1-05T02:45:47Z
2023-01-05T00:42:41Z,42.805,6.029,13.3020,4.60113,2470.577,2023-1-05T02:48:50Z
2023-01-05T00:45:44Z,42.805,6.029,13.3025,4.60125,2470.591,2023-1-05T02:51:53Z
2023-01-05T00:48:47Z,42.805,6.029,13.3025,4.60101,2470.553,2023-1-05T02:54:56Z
2023-01-05T00:51:51Z,42.805,6.029,13.3022,4.60106,2470.553,2023-1-05T02:57:59Z
2023-01-05T00:54:54Z,42.805,6.029,13.3027,4.60112,2470.567,2023-1-05T03:01:02Z
2023-01-05T00:57:57Z,42.805,6.029,13.3034,4.60094,2470.577,2023-1-05T03:04:05Z
2023-01-05T01:01:00Z,42.805,6.029,13.3034,4.60119,2470.567,2023-1-05T03:07:08Z
2023-01-05T01:04:03Z,42.805,6.029,13.3026,4.60119,2470.591,2023-1-05T03:10:11Z
2023-01-05T01:07:06Z,42.805,6.029,13.3020,4.60109,2470.553,2023-1-05T03:13:14Z
2023-01-05T01:10:09Z,42.805,6.029,13.3024,4.60101,2470.591,2023-1-05T03:16:17Z
2023-01-05T01:13:12Z,42.805,6.029,13.3025,4.60079,2470.6,2023-1-05T03:19:21Z
2023-01-05T01:16:15Z,42.805,6.029,13.3026,4.60088,2470.567,2023-1-05T03:22:24Z
2023-01-05T01:19:18Z,42.805,6.029,13.3024,4.60098,2470.591,2023-1-05T03:25:27Z
2023-01-05T01:22:21Z,42.805,6.029,13.3027,4.60127,2470.6,2023-1-05T03:28:30Z
2023-01-05T01:25:24Z,42.805,6.029,13.3027,4.60116,2470.577,2023-1-05T03:31:33Z
2023-01-05T01:28:28Z,42.805,6.029,13.3024,4.60110,2470.567,2023-1-05T03:34:36Z
2023-01-05T01:31:31Z,42.805,6.029,13.3032,4.60123,2470.577,2023-1-05T03:37:39Z
2023-01-05T01:34:34Z,42.805,6.029,13.3029,4.60079,2470.577,2023-1-05T03:40:42Z
2023-01-05T01:37:37Z,42.805,6.029,13.3029,4.60117,2470.553,2023-1-05T03:43:45Z
2023-01-05T01:40:40Z,42.805,6.029,13.3031,4.60121,2470.6,2023-1-05T03:46:48Z
2023-01-05T01:43:43Z,42.805,6.029,13.3046,4.60123,2470.567,2023-1-05T03:49:51Z
2023-01-05T01:46:46Z,42.805,6.029,13.3030,4.60104,2470.6,2023-1-05T03:52:54Z
2023-01-05T01:49:49Z,42.805,6.029,13.3029,4.60120,2470.591,2023-1-05T03:55:58Z
2023-01-05T01:52:52Z,42.805,6.029,13.3026,4.60134,2470.577,2023-1-05T03:59:01Z
2023-01-05T01:55:55Z,42.805,6.029,13.3022,4.60106,2470.624,2023-1-05T04:02:04Z
2023-01-05T01:58:58Z,42.805,6.029,13.3024,4.60121,2470.6,2023-1-05T04:05:07Z
2023-01-05T02:02:01Z,42.805,6.029,13.3034,4.60107,2470.577,2023-1-05T04:08:10Z
2023-01-05T02:05:04Z,42.805,6.029,13.3029,4.60097,2470.6,2023-1-05T04:11:13Z
2023-01-05T02:08:08Z,42.805,6.029,13.3056,4.60120,2470.637,2023-1-05T04:14:16Z
2023-01-05T02:11:11Z,42.805,6.029,13.3026,4.60099,2470.6,2023-1-05T04:17:19Z
2023-01-05T02:14:14Z,42.805,6.029,13.3024,4.60094,2470.61,2023-1-05T04:20:22Z
2023-01-05T02:17:17Z,42.805,6.029,13.3020,4.60093,2470.586,2023-1-05T04:23:25Z
2023-01-05T02:20:20Z,42.805,6.029,13.3026,4.60102,2470.6,2023-1-05T04:26:28Z
2023-01-05T02:23:23Z,42.805,6.029,13.3021,4.60116,2470.624,2023-1-05T04:29:31Z
2023-01-05T02:26:26Z,42.805,6.029,13.3027,4.60107,2470.6,2023-1-05T04:32:35Z
2023-01-05T02:29:29Z,42.805,6.029,13.3030,4.60104,2470.637,2023-1-05T04:35:38Z
2023-01-05T02:32:32Z,42.805,6.029,13.3018,4.60091,2470.6,2023-1-05T04:38:41Z
2023-01-05T02:35:35Z,42.805,6.029,13.3021,4.60097,2470.646,2023-1-05T04:41:44Z
2023-01-05T02:38:38Z,42.805,6.029,13.3019,4.60086,2470.6,2023-1-05T04:44:47Z
2023-01-05T02:41:41Z,42.805,6.029,13.3029,4.60092,2470.637,2023-1-05T04:47:50Z
2023-01-05T02:44:45Z,42.805,6.029,13.3021,4.60111,2470.614,2023-1-05T04:50:53Z
2023-01-05T02:47:48Z,42.805,6.029,13.3023,4.60092,2470.637,2023-1-05T04:53:56Z
2023-01-05T02:50:51Z,42.805,6.029,13.3021,4.60100,2470.624,2023-1-05T04:56:59Z
2023-01-05T02:53:54Z,42.805,6.029,13.3030,4.60089,2470.684,2023-1-05T05:00:02Z
2023-01-05T02:56:57Z,42.805,6.029,13.3023,4.60095,2470.646,2023-1-05T05:03:05Z
2023-01-05T03:00:00Z,42.805,6.029,13.3025,4.60087,2470.614,2023-1-05T05:06:08Z
2023-01-05T03:03:03Z,42.805,6.029,13.3024,4.60093,2470.646,2023-1-05T05:09:12Z
2023-01-05T03:06:06Z,42.805,6.029,13.3026,4.60092,2470.646,2023-1-05T05:12:15Z
2023-01-05T03:09:09Z,42.805,6.029,13.3026,4.60099,2470.67,2023-1-05T05:15:18Z
2023-01-05T03:12:12Z,42.805,6.029,13.3031,4.60114,2470.633,2023-1-05T05:18:21Z
2023-01-05T03:15:15Z,42.805,6.029,13.3025,4.60111,2470.624,2023-1-05T05:21:24Z
2023-01-05T03:18:18Z,42.805,6.029,13.3026,4.60118,2470.624,2023-1-05T05:24:27Z
2023-01-05T03:21:22Z,42.805,6.029,13.3026,4.60095,2470.684,2023-1-05T05:27:30Z
2023-01-05T03:24:25Z,42.805,6.029,13.3033,4.60113,2470.624,2023-1-05T05:30:33Z
2023-01-05T03:27:28Z,42.805,6.029,13.3028,4.60102,2470.684,2023-1-05T05:33:36Z
2023-01-05T03:30:31Z,42.805,6.029,13.3032,4.60089,2470.693,2023-1-05T05:36:39Z
2023-01-05T03:33:34Z,42.805,6.029,13.3033,4.60102,2470.707,2023-1-05T05:39:42Z
2023-01-05T03:36:37Z,42.805,6.029,13.3028,4.60096,2470.679,2023-1-05T05:42:45Z
2023-01-05T03:39:40Z,42.805,6.029,13.3036,4.60112,2470.684,2023-1-05T05:45:49Z
2023-01-05T03:42:43Z,42.805,6.029,13.3031,4.60105,2470.707,2023-1-05T05:48:52Z
2023-01-05T03:45:46Z,42.805,6.029,13.3029,4.60089,2470.717,2023-1-05T05:51:55Z
2023-01-05T03:48:49Z,42.805,6.029,13.3021,4.60082,2470.693,2023-1-05T05:54:58Z
2023-01-05T03:51:52Z,42.805,6.029,13.3023,4.60091,2470.693,2023-1-05T05:58:01Z
2023-01-05T03:54:55Z,42.805,6.029,13.3021,4.60087,2470.707,2023-1-05T06:01:04Z
2023-01-05T03:57:58Z,42.805,6.029,13.3025,4.60088,2470.707,2023-1-05T06:04:07Z
2023-01-05T04:01:02Z,42.805,6.029,13.3026,4.60087,2470.67,2023-1-05T06:07:10Z
2023-01-05T04:04:05Z,42.805,6.029,13.3026,4.60092,2470.693,2023-1-05T06:10:13Z
2023-01-05T04:07:08Z,42.805,6.029,13.3034,4.60097,2470.707,2023-1-05T06:13:16Z
2023-01-05T04:10:11Z,42.805,6.029,13.3022,4.60089,2470.693,2023-1-05T06:16:19Z
2023-01-05T04:13:14Z,42.805,6.029,13.3023,4.60084,2470.73,2023-1-05T06:19:22Z
2023-01-05T04:16:17Z,42.805,6.029,13.3026,4.60089,2470.707,2023-1-05T06:22:26Z
2023-01-05T04:19:20Z,42.805,6.029,13.3023,4.60092,2470.717,2023-1-05T06:25:29Z
2023-01-05T04:22:23Z,42.805,6.029,13.3021,4.60087,2470.73,2023-1-05T06:28:32Z
2023-01-05T04:25:26Z,42.805,6.029,13.3026,4.60092,2470.707,2023-1-05T06:31:35Z
2023-01-05T04:28:29Z,42.805,6.029,13.3033,4.60119,2470.693,2023-1-05T06:34:38Z
2023-01-05T04:31:32Z,42.805,6.029,13.3023,4.60109,2470.717,2023-1-05T06:37:41Z
2023-01-05T04:34:35Z,42.805,6.029,13.3023,4.60107,2470.777,2023-1-05T06:40:44Z
2023-01-05T04:37:39Z,42.805,6.029,13.3025,4.60097,2470.74,2023-1-05T06:43:47Z
2023-01-05T04:40:42Z,42.805,6.029,13.3032,4.60115,2470.73,2023-1-05T06:46:50Z
2023-01-05T04:43:45Z,42.805,6.029,13.3023,4.60096,2470.754,2023-1-05T06:49:53Z
2023-01-05T04:46:48Z,42.805,6.029,13.3026,4.60095,2470.717,2023-1-05T06:52:56Z
2023-01-05T04:49:51Z,42.805,6.029,13.3029,4.60097,2470.717,2023-1-05T06:55:59Z
2023-01-05T04:52:54Z,42.805,6.029,13.3038,4.60099,2470.74,2023-1-05T06:59:03Z
2023-01-05T04:55:57Z,42.805,6.029,13.3044,4.60113,2470.754,2023-1-05T07:02:06Z
2023-01-05T04:59:00Z,42.805,6.029,13.3031,4.60126,2470.74,2023-1-05T07:05:09Z
2023-01-05T05:02:03Z,42.805,6.029,13.3030,4.60110,2470.717,2023-1-05T07:08:12Z
2023-01-05T05:05:06Z,42.805,6.029,13.3024,4.60088,2470.763,2023-1-05T07:11:15Z
2023-01-05T05:08:09Z,42.805,6.029,13.3024,4.60099,2470.74,2023-1-05T07:14:18Z
2023-01-05T05:11:12Z,42.805,6.029,13.3024,4.60115,2470.763,2023-1-05T07:17:21Z
2023-01-05T05:14:15Z,42.805,6.029,13.3016,4.60084,2470.777,2023-1-05T07:20:24Z
2023-01-05T05:17:19Z,42.805,6.029,13.3019,4.60089,2470.754,2023-1-05T07:23:27Z
2023-01-05T05:20:22Z,42.805,6.029,13.3023,4.60085,2470.763,2023-1-05T07:26:30Z
2023-01-05T05:23:25Z,42.805,6.029,13.3031,4.60107,2470.763,2023-1-05T07:29:33Z
2023-01-05T05:26:28Z,42.805,6.029,13.3031,4.60117,2470.787,2023-1-05T07:32:36Z
2023-01-05T05:29:31Z,42.805,6.029,13.3056,4.60119,2470.8,2023-1-05T07:35:40Z
2023-01-05T05:32:34Z,42.805,6.029,13.3022,4.60114,2470.763,2023-1-05T07:38:43Z
2023-01-05T05:35:37Z,42.805,6.029,13.3040,4.60129,2470.763,2023-1-05T07:41:46Z
2023-01-05T05:38:40Z,42.805,6.029,13.3031,4.60125,2470.763,2023-1-05T07:44:49Z
2023-01-05T05:41:43Z,42.805,6.029,13.3031,4.60106,2470.8,2023-1-05T07:47:52Z
2023-01-05T05:44:46Z,42.805,6.029,13.3030,4.60102,2470.763,2023-1-05T07:50:55Z
2023-01-05T05:47:49Z,42.805,6.029,13.3024,4.60107,2470.777,2023-1-05T07:53:58Z
2023-01-05T05:50:53Z,42.805,6.029,13.3034,4.60114,2470.787,2023-1-05T07:57:01Z
2023-01-05T05:53:56Z,42.805,6.029,13.3036,4.60110,2470.777,2023-1-05T08:00:04Z
2023-01-05T05:56:59Z,42.805,6.029,13.3045,4.60110,2470.8,2023-1-05T08:03:07Z
2023-01-05T06:00:02Z,42.805,6.029,13.3043,4.60116,2470.81,2023-1-05T08:06:10Z
2023-01-05T06:03:05Z,42.805,6.029,13.3051,4.60132,2470.763,2023-1-05T08:09:13Z
2023-01-05T06:06:08Z,42.805,6.029,13.3041,4.60143,2470.824,2023-1-05T08:12:16Z
2023-01-05T06:09:11Z,42.805,6.029,13.3045,4.60136,2470.777,2023-1-05T08:15:20Z
2023-01-05T06:12:14Z,42.805,6.029,13.3048,4.60135,2470.824,2023-1-05T08:18:23Z
2023-01-05T06:15:17Z,42.805,6.029,13.3043,4.60114,2470.8,2023-1-05T08:21:26Z
2023-01-05T06:18:20Z,42.805,6.029,13.3048,4.60113,2470.777,2023-1-05T08:24:29Z
2023-01-05T06:21:23Z,42.805,6.029,13.3048,4.60113,2470.777,2023-1-05T08:27:32Z
2023-01-05T06:24:26Z,42.805,6.029,13.3036,4.60117,2470.787,2023-1-05T08:30:35Z
2023-01-05T06:27:29Z,42.805,6.029,13.3035,4.60128,2470.777,2023-1-05T08:33:38Z
2023-01-05T06:30:33Z,42.805,6.029,13.3036,4.60133,2470.8,2023-1-05T08:36:41Z
2023-01-05T06:33:36Z,42.805,6.029,13.3032,4.60132,2470.787,2023-1-05T08:39:44Z
2023-01-05T06:36:39Z,42.805,6.029,13.3031,4.60116,2470.8,2023-1-05T08:42:47Z
2023-01-05T06:39:42Z,42.805,6.029,13.3034,4.60119,2470.8,2023-1-05T08:45:50Z
2023-01-05T06:42:45Z,42.805,6.029,13.3054,4.60113,2470.787,2023-1-05T08:48:54Z
2023-01-05T06:45:48Z,42.805,6.029,13.3041,4.60115,2470.787,2023-1-05T08:51:57Z
2023-01-05T06:48:51Z,42.805,6.029,13.3041,4.60117,2470.8,2023-1-05T08:55:00Z
2023-01-05T06:51:54Z,42.805,6.029,13.3023,4.60093,2470.8,2023-1-05T08:58:03Z
2023-01-05T06:54:57Z,42.805,6.029,13.3023,4.60084,2470.81,2023-1-05T09:01:06Z
2023-01-05T06:58:00Z,42.805,6.029,13.3033,4.60098,2470.847,2023-1-05T09:04:09Z
2023-01-05T07:01:03Z,42.805,6.029,13.3043,4.60097,2470.787,2023-1-05T09:07:12Z
2023-01-05T07:04:06Z,42.805,6.029,13.3035,4.60119,2470.824,2023-1-05T09:10:15Z
2023-01-05T07:07:10Z,42.805,6.029,13.3047,4.60128,2470.763,2023-1-05T09:13:18Z
2023-01-05T07:10:13Z,42.805,6.029,13.3047,4.60125,2470.763,2023-1-05T09:16:21Z
2023-01-05T07:13:16Z,42.805,6.029,13.3046,4.60131,2470.81,2023-1-05T09:19:24Z
2023-01-05T07:16:19Z,42.805,6.029,13.3030,4.60118,2470.824,2023-1-05T09:22:27Z
2023-01-05T07:19:22Z,42.805,6.029,13.3029,4.60122,2470.81,2023-1-05T09:25:31Z
2023-01-05T07:22:25Z,42.805,6.029,13.3040,4.60122,2470.787,2023-1-05T09:28:34Z
2023-01-05T07:25:28Z,42.805,6.029,13.3044,4.60129,2470.787,2023-1-05T09:31:37Z
2023-01-05T07:28:31Z,42.805,6.029,13.3039,4.60099,2470.763,2023-1-05T09:34:40Z
2023-01-05T07:31:34Z,42.805,6.029,13.3031,4.60132,2470.777,2023-1-05T09:37:43Z
2023-01-05T07:34:37Z,42.805,6.029,13.3044,4.60111,2470.74,2023-1-05T09:40:46Z
2023-01-05T07:37:40Z,42.805,6.029,13.3029,4.60102,2470.777,2023-1-05T09:43:49Z
2023-01-05T07:40:43Z,42.805,6.029,13.3026,4.60114,2470.777,2023-1-05T09:46:52Z
2023-01-05T07:43:47Z,42.805,6.029,13.3053,4.60134,2470.763,2023-1-05T09:49:55Z
2023-01-05T07:46:50Z,42.805,6.029,13.3032,4.60081,2470.81,2023-1-05T09:52:58Z
2023-01-05T07:49:53Z,42.805,6.029,13.3021,4.60097,2470.777,2023-1-05T09:56:01Z
2023-01-05T07:52:56Z,42.805,6.029,13.3021,4.60091,2470.8,2023-1-05T09:59:04Z
2023-01-05T07:55:59Z,42.805,6.029,13.3024,4.60093,2470.763,2023-1-05T10:02:08Z
2023-01-05T07:59:02Z,42.805,6.029,13.3031,4.60133,2470.763,2023-1-05T10:05:11Z
2023-01-05T08:02:05Z,42.805,6.029,13.3036,4.60115,2470.787,2023-1-05T10:08:14Z
2023-01-05T08:05:08Z,42.805,6.029,13.3053,4.60129,2470.8,2023-1-05T10:11:17Z
2023-01-05T08:08:11Z,42.805,6.029,13.3041,4.60125,2470.787,2023-1-05T10:14:20Z
2023-01-05T08:11:14Z,42.805,6.029,13.3024,4.60114,2470.763,2023-1-05T10:17:23Z
2023-01-05T08:14:17Z,42.805,6.029,13.3031,4.60106,2470.787,2023-1-05T10:20:26Z
2023-01-05T08:17:20Z,42.805,6.029,13.3036,4.60105,2470.8,2023-1-05T10:23:29Z
2023-01-05T08:20:24Z,42.805,6.029,13.3047,4.60116,2470.787,2023-1-05T10:26:32Z
2023-01-05T08:23:27Z,42.805,6.029,13.3047,4.60135,2470.777,2023-1-05T10:29:35Z
2023-01-05T08:26:30Z,42.805,6.029,13.3041,4.60135,2470.777,2023-1-05T10:32:38Z
2023-01-05T08:29:33Z,42.805,6.029,13.3038,4.60152,2470.777,2023-1-05T10:35:41Z
2023-01-05T08:32:36Z,42.805,6.029,13.3021,4.60104,2470.74,2023-1-05T10:38:45Z
2023-01-05T08:35:39Z,42.805,6.029,13.3027,4.60125,2470.763,2023-1-05T10:41:48Z
2023-01-05T08:38:42Z,42.805,6.029,13.3046,4.60126,2470.763,2023-1-05T10:44:51Z
2023-01-05T08:41:45Z,42.805,6.029,13.3058,4.60125,2470.74,2023-1-05T10:47:54Z
2023-01-05T08:44:48Z,42.805,6.029,13.3024,4.60097,2470.763,2023-1-05T10:50:57Z
2023-01-05T08:47:51Z,42.805,6.029,13.3041,4.60132,2470.754,2023-1-05T10:54:00Z
2023-01-05T08:50:54Z,42.805,6.029,13.3050,4.60112,2470.763,2023-1-05T10:57:03Z
2023-01-05T08:53:57Z,42.805,6.029,13.3029,4.60131,2470.74,2023-1-05T11:00:06Z
2023-01-05T08:57:01Z,42.805,6.029,13.3041,4.60132,2470.754,2023-1-05T11:03:09Z
2023-01-05T09:00:04Z,42.805,6.029,13.3034,4.60121,2470.74,2023-1-05T11:06:12Z
2023-01-05T09:03:07Z,42.805,6.029,13.3039,4.60119,2470.754,2023-1-05T11:09:15Z
2023-01-05T09:06:10Z,42.805,6.029,13.3023,4.60096,2470.74,2023-1-05T11:12:19Z
2023-01-05T09:09:13Z,42.805,6.029,13.3020,4.60090,2470.74,2023-1-05T11:15:22Z
2023-01-05T09:12:16Z,42.805,6.029,13.3029,4.60106,2470.74,2023-1-05T11:18:25Z
2023-01-05T09:15:19Z,42.805,6.029,13.3040,4.60113,2470.763,2023-1-05T11:21:28Z
2023-01-05T09:18:22Z,42.805,6.029,13.3041,4.60144,2470.763,2023-1-05T11:24:31Z
2023-01-05T09:21:25Z,42.805,6.029,13.3046,4.60109,2470.74,2023-1-05T11:27:34Z
2023-01-05T09:24:28Z,42.805,6.029,13.3031,4.60127,2470.73,2023-1-05T11:30:37Z
2023-01-05T09:27:31Z,42.805,6.029,13.3031,4.60133,2470.763,2023-1-05T11:33:40Z
2023-01-05T09:30:35Z,42.805,6.029,13.3030,4.60104,2470.717,2023-1-05T11:36:43Z
2023-01-05T09:33:38Z,42.805,6.029,13.3035,4.60119,2470.754,2023-1-05T11:39:46Z
2023-01-05T09:36:41Z,42.805,6.029,13.3037,4.60128,2470.73,2023-1-05T11:42:49Z
2023-01-05T09:39:44Z,42.805,6.029,13.3048,4.60137,2470.754,2023-1-05T11:45:53Z
2023-01-05T09:42:47Z,42.805,6.029,13.3038,4.60126,2470.74,2023-1-05T11:48:56Z
2023-01-05T09:45:50Z,42.805,6.029,13.3025,4.60096,2470.777,2023-1-05T11:51:59Z
2023-01-05T09:48:53Z,42.805,6.029,13.3039,4.60132,2470.754,2023-1-05T11:55:02Z
2023-01-05T09:51:56Z,42.805,6.029,13.3027,4.60120,2470.74,2023-1-05T11:58:05Z
2023-01-05T09:54:59Z,42.805,6.029,13.3047,4.60125,2470.74,2023-1-05T12:01:08Z
2023-01-05T09:58:02Z,42.805,6.029,13.3053,4.60138,2470.74,2023-1-05T12:04:11Z
2023-01-05T10:01:05Z,42.805,6.029,13.3039,4.60108,2470.717,2023-1-05T12:07:14Z
2023-01-05T10:04:09Z,42.805,6.029,13.3050,4.60142,2470.693,2023-1-05T12:10:17Z
2023-01-05T10:07:12Z,42.805,6.029,13.3034,4.60127,2470.717,2023-1-05T12:13:20Z
2023-01-05T10:10:15Z,42.805,6.029,13.3048,4.60144,2470.693,2023-1-05T12:16:23Z
2023-01-05T10:13:18Z,42.805,6.029,13.3044,4.60132,2470.707,2023-1-05T12:19:27Z
2023-01-05T10:16:21Z,42.805,6.029,13.3032,4.60122,2470.717,2023-1-05T12:22:30Z
2023-01-05T10:19:24Z,42.805,6.029,13.3041,4.60127,2470.73,2023-1-05T12:25:33Z
2023-01-05T10:22:27Z,42.805,6.029,13.3056,4.60126,2470.717,2023-1-05T12:28:36Z
2023-01-05T10:25:30Z,42.805,6.029,13.3056,4.60128,2470.693,2023-1-05T12:31:39Z
2023-01-05T10:28:33Z,42.805,6.029,13.3043,4.60123,2470.717,2023-1-05T12:34:42Z
2023-01-05T10:31:36Z,42.805,6.029,13.3046,4.60125,2470.717,2023-1-05T12:37:45Z
2023-01-05T10:34:39Z,42.805,6.029,13.3026,4.60134,2470.693,2023-1-05T12:40:48Z
2023-01-05T10:37:42Z,42.805,6.029,13.3032,4.60108,2470.717,2023-1-05T12:43:51Z
2023-01-05T10:40:46Z,42.805,6.029,13.3026,4.60112,2470.684,2023-1-05T12:46:54Z
2023-01-05T10:43:49Z,42.805,6.029,13.3042,4.60127,2470.693,2023-1-05T12:49:57Z
2023-01-05T10:46:52Z,42.805,6.029,13.3033,4.60118,2470.707,2023-1-05T12:53:01Z
2023-01-05T10:49:55Z,42.805,6.029,13.3043,4.60125,2470.684,2023-1-05T12:56:04Z
2023-01-05T10:52:58Z,42.805,6.029,13.3058,4.60146,2470.693,2023-1-05T12:59:07Z
2023-01-05T10:56:01Z,42.805,6.029,13.3068,4.60149,2470.679,2023-1-05T13:02:10Z
2023-01-05T10:59:04Z,42.805,6.029,13.3066,4.60134,2470.707,2023-1-05T13:05:13Z
2023-01-05T11:02:07Z,42.805,6.029,13.3046,4.60141,2470.67,2023-1-05T13:08:16Z
2023-01-05T11:05:10Z,42.805,6.029,13.3041,4.60146,2470.67,2023-1-05T13:11:19Z
2023-01-05T11:08:13Z,42.805,6.029,13.3051,4.60157,2470.684,2023-1-05T13:14:22Z
2023-01-05T11:11:16Z,42.805,6.029,13.3055,4.60131,2470.661,2023-1-05T13:17:25Z
2023-01-05T11:14:19Z,42.805,6.029,13.3064,4.60146,2470.661,2023-1-05T13:20:28Z
2023-01-05T11:17:23Z,42.805,6.029,13.3046,4.60144,2470.661,2023-1-05T13:23:31Z
2023-01-05T11:20:26Z,42.805,6.029,13.3057,4.60169,2470.67,2023-1-05T13:26:34Z
2023-01-05T11:23:29Z,42.805,6.029,13.3034,4.60135,2470.707,2023-1-05T13:29:38Z
2023-01-05T11:26:32Z,42.805,6.029,13.3054,4.60147,2470.646,2023-1-05T13:32:41Z
2023-01-05T11:29:35Z,42.805,6.029,13.3059,4.60137,2470.646,2023-1-05T13:35:44Z
2023-01-05T11:32:38Z,42.805,6.029,13.3056,4.60152,2470.684,2023-1-05T13:38:47Z
2023-01-05T11:35:41Z,42.805,6.029,13.3071,4.60151,2470.661,2023-1-05T13:41:50Z
2023-01-05T11:38:44Z,42.805,6.029,13.3050,4.60134,2470.67,2023-1-05T13:44:53Z
2023-01-05T11:41:47Z,42.805,6.029,13.3058,4.60147,2470.684,2023-1-05T13:47:56Z
2023-01-05T11:44:50Z,42.805,6.029,13.3077,4.60147,2470.661,2023-1-05T13:50:59Z
2023-01-05T11:47:53Z,42.805,6.029,13.3060,4.60132,2470.67,2023-1-05T13:54:02Z
2023-01-05T11:50:57Z,42.805,6.029,13.3048,4.60137,2470.646,2023-1-05T13:57:05Z
2023-01-05T11:54:00Z,42.805,6.029,13.3048,4.60157,2470.646,2023-1-05T14:00:08Z
2023-01-05T11:57:03Z,42.805,6.029,13.3056,4.60139,2470.646,2023-1-05T14:03:12Z
2023-01-05T12:00:06Z,42.805,6.029,13.3052,4.60140,2470.67,2023-1-05T14:06:15Z
2023-01-05T12:03:09Z,42.805,6.029,13.3041,4.60103,2470.637,2023-1-05T14:09:18Z
2023-01-05T12:06:12Z,42.805,6.029,13.3046,4.60139,2470.67,2023-1-05T14:12:21Z
2023-01-05T12:09:15Z,42.805,6.029,13.3049,4.60135,2470.637,2023-1-05T14:15:24Z
2023-01-05T12:12:18Z,42.805,6.029,13.3048,4.60132,2470.646,2023-1-05T14:18:27Z
2023-01-05T12:15:21Z,42.805,6.029,13.3048,4.60125,2470.661,2023-1-05T14:21:30Z
2023-01-05T12:18:24Z,42.805,6.029,13.3053,4.60119,2470.646,2023-1-05T14:24:33Z
2023-01-05T12:21:27Z,42.805,6.029,13.3043,4.60113,2470.661,2023-1-05T14:27:36Z
2023-01-05T12:24:30Z,42.805,6.029,13.3042,4.60139,2470.684,2023-1-05T14:30:39Z
2023-01-05T12:27:34Z,42.805,6.029,13.3055,4.60142,2470.6,2023-1-05T14:33:42Z
2023-01-05T12:30:37Z,42.805,6.029,13.3057,4.60133,2470.6,2023-1-05T14:36:45Z
2023-01-05T12:33:40Z,42.805,6.029,13.3075,4.60135,2470.624,2023-1-05T14:39:49Z
2023-01-05T12:36:43Z,42.805,6.029,13.3048,4.60137,2470.624,2023-1-05T14:42:52Z
2023-01-05T12:39:46Z,42.805,6.029,13.3032,4.60161,2470.614,2023-1-05T14:45:55Z
2023-01-05T12:42:49Z,42.805,6.029,13.3051,4.60144,2470.624,2023-1-05T14:48:58Z
2023-01-05T12:45:52Z,42.805,6.029,13.3031,4.60126,2470.646,2023-1-05T14:52:01Z
2023-01-05T12:48:55Z,42.805,6.029,13.3036,4.60123,2470.661,2023-1-05T14:55:04Z
2023-01-05T12:51:58Z,42.805,6.029,13.3048,4.60139,2470.624,2023-1-05T14:58:07Z
2023-01-05T12:55:01Z,42.805,6.029,13.3051,4.60131,2470.637,2023-1-05T15:01:10Z
2023-01-05T12:58:04Z,42.805,6.029,13.3050,4.60122,2470.637,2023-1-05T15:04:13Z
2023-01-05T13:01:07Z,42.805,6.029,13.3046,4.60119,2470.624,2023-1-05T15:07:16Z
2023-01-05T13:04:11Z,42.805,6.029,13.3040,4.60142,2470.624,2023-1-05T15:10:19Z
2023-01-05T13:07:14Z,42.805,6.029,13.3056,4.60146,2470.646,2023-1-05T15:13:22Z
2023-01-05T13:10:17Z,42.805,6.029,13.3058,4.60166,2470.624,2023-1-05T15:16:26Z
2023-01-05T13:13:20Z,42.805,6.029,13.3071,4.60120,2470.6,2023-1-05T15:19:29Z
2023-01-05T13:16:23Z,42.805,6.029,13.3061,4.60140,2470.637,2023-1-05T15:22:32Z
2023-01-05T13:19:26Z,42.805,6.029,13.3052,4.60122,2470.614,2023-1-05T15:25:35Z
2023-01-05T13:22:29Z,42.805,6.029,13.3023,4.60147,2470.661,2023-1-05T15:28:38Z
2023-01-05T13:25:32Z,42.805,6.029,13.3041,4.60117,2470.624,2023-1-05T15:31:41Z
2023-01-05T13:28:35Z,42.805,6.029,13.3029,4.60157,2470.6,2023-1-05T15:34:44Z
2023-01-05T13:31:38Z,42.805,6.029,13.3046,4.60180,2470.624,2023-1-05T15:37:47Z
2023-01-05T13:34:41Z,42.805,6.029,13.3054,4.60128,2470.614,2023-1-05T15:40:50Z
2023-01-05T13:37:44Z,42.805,6.029,13.3053,4.60147,2470.6,2023-1-05T15:43:53Z
2023-01-05T13:40:48Z,42.805,6.029,13.3049,4.60150,2470.614,2023-1-05T15:46:56Z
2023-01-05T13:43:51Z,42.805,6.029,13.3038,4.60140,2470.614,2023-1-05T15:50:00Z
2023-01-05T13:46:54Z,42.805,6.029,13.3042,4.60082,2470.624,2023-1-05T15:53:03Z
2023-01-05T13:49:57Z,42.805,6.029,13.3040,4.60099,2470.624,2023-1-05T15:56:06Z
2023-01-05T13:53:00Z,42.805,6.029,13.3055,4.60109,2470.624,2023-1-05T15:59:09Z
2023-01-05T13:56:03Z,42.805,6.029,13.3046,4.60134,2470.624,2023-1-05T16:02:12Z
2023-01-05T13:59:06Z,42.805,6.029,13.3043,4.60132,2470.637,2023-1-05T16:05:15Z
2023-01-05T14:02:09Z,42.805,6.029,13.3034,4.60140,2470.624,2023-1-05T16:08:18Z
2023-01-05T14:05:12Z,42.805,6.029,13.3054,4.60137,2470.624,2023-1-05T16:11:21Z
2023-01-05T14:08:15Z,42.805,6.029,13.3026,4.60149,2470.6,2023-1-05T16:14:24Z
2023-01-05T14:11:18Z,42.805,6.029,13.3038,4.60127,2470.661,2023-1-05T16:17:27Z
2023-01-05T14:14:21Z,42.805,6.029,13.3045,4.60133,2470.614,2023-1-05T16:20:30Z
2023-01-05T14:17:25Z,42.805,6.029,13.3057,4.60137,2470.577,2023-1-05T16:23:33Z
2023-01-05T14:20:28Z,42.805,6.029,13.3051,4.60155,2470.614,2023-1-05T16:26:37Z
2023-01-05T14:23:31Z,42.805,6.029,13.3043,4.60140,2470.61,2023-1-05T16:29:40Z
2023-01-05T14:26:34Z,42.805,6.029,13.3039,4.60119,2470.637,2023-1-05T16:32:43Z
2023-01-05T14:29:37Z,42.805,6.029,13.3054,4.60127,2470.646,2023-1-05T16:35:46Z
2023-01-05T14:32:40Z,42.805,6.029,13.3069,4.60120,2470.624,2023-1-05T16:38:49Z
2023-01-05T14:35:43Z,42.805,6.029,13.3050,4.60137,2470.646,2023-1-05T16:41:52Z
2023-01-05T14:38:46Z,42.805,6.029,13.3049,4.60155,2470.624,2023-1-05T16:44:55Z
2023-01-05T14:41:49Z,42.805,6.029,13.3058,4.60143,2470.637,2023-1-05T16:47:58Z
2023-01-05T14:44:52Z,42.805,6.029,13.3048,4.60180,2470.6,2023-1-05T16:51:01Z
2023-01-05T14:47:55Z,42.805,6.029,13.3041,4.60135,2470.624,2023-1-05T16:54:04Z
2023-01-05T14:50:59Z,42.805,6.029,13.3033,4.60132,2470.637,2023-1-05T16:57:07Z
2023-01-05T14:54:02Z,42.805,6.029,13.3030,4.60116,2470.661,2023-1-05T17:00:11Z
2023-01-05T14:57:05Z,42.805,6.029,13.3032,4.60122,2470.646,2023-1-05T17:03:14Z
2023-01-05T15:00:08Z,42.805,6.029,13.3041,4.60139,2470.624,2023-1-05T17:06:17Z
2023-01-05T15:03:11Z,42.805,6.029,13.3039,4.60122,2470.637,2023-1-05T17:09:20Z
2023-01-05T15:06:14Z,42.805,6.029,13.3032,4.60106,2470.646,2023-1-05T17:12:23Z
2023-01-05T15:09:17Z,42.805,6.029,13.3021,4.60110,2470.614,2023-1-05T17:15:26Z
2023-01-05T15:12:20Z,42.805,6.029,13.3031,4.60104,2470.67,2023-1-05T17:18:29Z
2023-01-05T15:15:23Z,42.805,6.029,13.3028,4.60107,2470.646,2023-1-05T17:21:32Z